162P/Siding Spring (2015)

Japanese version
Home page
Updated on July 6, 2017

---------------------------------------------------------------------

* Profile

* Pictures

* Orbital Elements

Epoch 2015 June 27.0 TT = JDT 2457200.5
T 2015 July 11.99108 TT                                 MPCW
q   1.2373503            (2000.0)            P               Q
n   0.18446983     Peri.  356.40946     +0.88228046     -0.40400443
a   3.0562284      Node    31.21291     +0.44266246     +0.53753827
e   0.5951381      Incl.   27.78634     +0.16009729     +0.74015744
P   5.34
From 1944 observations 1990 Mar. 23-2017 May 3, mean residual 0".4.

* Finding Charts

* Magnitudes Graph

        H = 13.7  G = 0.15

---------------------------------------------------------------------

The orbital elements are published on M.P.E.C. 2017-L52.
The charts are made with StellaNavigator Ver.8 (AstroArts).
The magnitudes graphs are made with Comet for Windows.

---------------------------------------------------------------------

Copyright(C) Seiichi Yoshida (comet@aerith.net). All rights reserved.